Home   Weather   Sarasota   Past weeks

Flag for USA Past Weather in Sarasota, Florida, USA — Yesterday and Last 2 Weeks

Now
72 °F

Low clouds.


Feels Like: 67 °F
Forecast: 71 / 79 °F
Wind: 12 mph from Southeast

Location: Sarasota-Bradenton International Airport

Current Time: Dec 5, 2016 at 9:40:23 am

Latest Report: Dec 5, 2016 at 8:53 am


Visibility: 10 mi

Pressure: 29.98 "Hg

Humidity: 97%

Dew Point: 71 °F

Location of SarasotaLocation

Past Weather in Sarasota — Graph

°F

Sarasota Temperature Yesterday

Maximum temperature yesterday: 84 °F (at 1:53 pm)
Minimum temperature yesterday: 63 °F (at 3:53 am)
Average temperature yesterday: 72 °F

High & Low Weather Summary for the Past Weeks

 TemperatureHumidityPressure
High86 °F (Nov 24, 2:53 pm)97% (Nov 29, 6:53 am)30.24 "Hg (Nov 29, 6:53 am)
Low48 °F (Nov 22, 3:53 am)15% (Nov 21, 12:53 pm)29.90 "Hg (Nov 29, 2:53 am)
Average69 °F65%30.07 "Hg
* Reported Nov 20 7:53 am — Dec 5 7:53 am, Sarasota, Weather by CustomWeather, © 2016

Note: Actual official high and low records may vary slightly from our data, if they occured in-between our weather recording intervals... More about our weather records

Advertising

Sarasota Weather History for the Previous 24 Hours

Scroll right to see more
 ConditionsComfort  
Time TempWeatherWind HumidityBarometerVisibility
7:53 am
Mon, Dec 5
71 °FPartly sunny.14 mph96%29.96 "Hg10 mi
6:53 am68 °FPassing clouds.12 mph96%29.96 "Hg10 mi
5:53 am67 °FPassing clouds.7 mph97%29.97 "Hg9 mi
4:53 am67 °FClear.6 mph93%29.97 "Hg9 mi
3:53 am67 °FClear.5 mph93%29.98 "Hg10 mi
2:53 am68 °FClear.3 mph93%29.98 "Hg10 mi
1:53 am68 °FClear.5 mph93%29.99 "Hg10 mi
12:53 am69 °FClear.6 mph90%29.99 "Hg10 mi
11:53 pm
Sun, Dec 4
68 °FClear.6 mph90%30.01 "Hg10 mi
10:53 pm68 °FClear.9 mph90%30.01 "Hg10 mi
9:53 pm67 °FClear.6 mph90%30.01 "Hg10 mi
8:53 pm70 °FClear.3 mph84%30.01 "Hg10 mi
7:53 pm72 °FClear.3 mph81%29.99 "Hg10 mi
6:53 pm75 °FClear.6 mph74%29.98 "Hg10 mi
5:53 pm77 °FClear.7 mph66%29.97 "Hg10 mi
4:53 pm80 °FPassing clouds.7 mph60%29.97 "Hg10 mi
3:53 pm81 °FPassing clouds.9 mph58%29.96 "Hg10 mi
2:53 pm82 °FSunny.12 mph56%29.97 "Hg10 mi
1:53 pm84 °FSunny.14 mph49%29.98 "Hg10 mi
12:53 pm83 °FSunny.10 mph53%30.01 "Hg10 mi
11:53 am81 °FSunny.15 mph56%30.03 "Hg10 mi
10:53 am79 °FSunny.17 mph58%30.05 "Hg10 mi
9:53 am76 °FSunny.14 mph62%30.06 "Hg10 mi
Weather by CustomWeather, © 2016

See weather overviewHow to use our weather pages